Notices

What's New in latest Release from April 7th, 2021:

- Updated Glossary, including Speed of Maximum Gust, and Total Hourly Precipitation

- Updated national and regional climate services offices contacts and prices information

- Addition of station inventory lists for 1981-2010, 1971-2000, and 1961-1990 Normals.

If you haven't already, please take our survey and provide feedback about our website: https://eccc.sondage-survey.ca/f/LanguageSelection.aspx?s=442ca660-fcf1-47c0-95a9-59707d6fd709

Hourly Data Report for October 14, 2017

VICTORIA UNIVERSITY CS
BRITISH COLUMBIA

48°27'25.200" N
123°18'16.600" W
60.10 m
1018598
71783
WYJ

Download Data

Hourly Data (October 2017)
Hourly Data Report for October 14, 2017
TIME
LST
Temp Definition
°C
Dew Point Definition
°C
Rel Hum Definition
%
Precip. Amount Definition
mm

Wind Dir Definition
10's deg

Wind Spd Definition
km/h
Visibility Definition
km
Stn Press Definition
kPa
Hmdx Definition


Wind Chill Definition


Weather Definition


00:00 4.3 3.9 97 0.0 19 3   102.24     LegendNANA
01:00 4.3 4.0 97 0.0 20 2   102.28     LegendNANA
02:00 3.6 3.3 98 0.0 27 2   102.35     LegendNANA
03:00 3.4 3.1 98 0.0   0   102.35     LegendNANA
04:00 7.2 6.9 98 0.0 15 3   102.38     LegendNANA
05:00 7.1 5.7 91 0.0 12 1   102.39     LegendNANA
06:00 6.9 4.9 87 0.0 15 2   102.42     LegendNANA
07:00 7.2 5.5 89 0.0 15 2   102.44     LegendNANA
08:00 7.5 5.5 87 0.0 0 1   102.46     LegendNANA
09:00 7.6 5.7 88 0.0 13 2   102.49     LegendNANA
10:00 7.7 6.0 89 0.0 10 3   102.48     LegendNANA
11:00 8.6 6.2 85 0.0 11 2   102.52     LegendNANA
12:00 9.2 6.3 82 0.0 11 2   102.50     LegendNANA
13:00 9.7 6.2 79 0.0 11 3   102.47     LegendNANA
14:00 10.0 6.0 76 0.0 11 2   102.43     LegendNANA
15:00 10.0 6.3 78 0.0 12 3   102.40     LegendNANA
16:00 10.0 6.3 78 0.0 8 1   102.38     LegendNANA
17:00 9.7 6.5 80 0.0 9 2   102.37     LegendNANA
18:00 9.4 6.2 81 0.0 35 3   102.39     LegendNANA
19:00 9.7 5.6 75 0.0 35 8   102.39     LegendNANA
20:00 9.6 5.9 78 0.0 35 7   102.39     LegendNANA
21:00 9.4 6.1 80 0.0 34 6   102.37     LegendNANA
22:00 9.4 6.0 79 0.0 34 6   102.33     LegendNANA
23:00 9.3 7.2 86 0.0 34 6   102.31     LegendNANA

Notes on Data Quality.

Legend

  • E = Estimated
  • M = Missing
  • NA = Not Available*
  • [empty] = Indicates an unobserved value
Date modified: